Location: Mt. Bigelow
(32.4165°N, 110.7345°W)
Time: 15:09:19
(UTC-07:00)

ISS - Visible Passes

Search period start: 24 November 2017 00:00
Search period end: 04 December 2017 00:00
Orbit: 401 x 407 km, 51.6° (Epoch: 25 November)

Date Brightness Start Highest point End Pass type
(mag) Time Alt. Az. Time Alt. Az. Time Alt. Az.
24 Nov -2.0 18:12:13 10° S 18:14:28 17° SE 18:15:23 16° ESE visible
24 Nov -0.3 19:47:49 10° WSW 19:48:04 11° W 19:48:04 11° W visible
25 Nov -3.6 18:55:06 10° SW 18:58:17 65° NW 18:58:17 65° NW visible
26 Nov -3.6 18:02:51 10° SSW 18:06:00 52° SE 18:08:24 16° ENE visible
26 Nov -0.5 19:40:52 10° WNW 19:41:04 11° WNW 19:41:04 11° WNW visible
27 Nov -2.0 18:47:24 10° W 18:50:08 24° NW 18:51:06 21° N visible
28 Nov -3.1 17:54:29 10° WSW 17:57:39 48° NW 18:00:50 10° NE visible
29 Nov -1.1 18:40:45 10° NW 18:42:03 12° NNW 18:43:20 10° N visible
30 Nov -1.7 17:46:55 10° W 17:49:25 20° NW 17:51:55 10° NNE visible
